Location: ??????
(56.0120°N, 39.1740°E)
Time: 22:04:00
(UTC+00:00)

Meteor 1-20 Rocket - Pass Details

Date: 14 April 2026
Orbit: 817 x 891 km, 81.2° (Epoch: 13 May)

Event Time Altitude Azimuth Distance (km) Brightness Sun altitude
Rises 22:01:27 0° 345° (NNW) 3,376 8.4 -23.8°
Reaches altitude 10° 22:03:52 10° 347° (NNW) 2,434 7.5 -23.8°
Maximum altitude 22:09:23 78° 75° (ENE) 843 4.1 -23.6°
Enters shadow 22:10:49 50° 150° (SSE) 1,032 4.3 -23.6°
